Regional Weather Roundup
Issued by NWS Charleston, SC

Current Version | Previous Version | Graphics & Text | Print | Product List | Glossary On
Versions: 1 2 3 4 5 6 7 8 9 10 11 12 13 14 15 16 17 18 19 20 21 22 23 24 25 26 27 28 29 30 31 32 33 34 35 36 37 38 39 40 41 42 43 44 45 46 47 48 49 50
000
ASUS42 KCHS 061412
RWRCHS

REGIONAL WEATHER ROUNDUP
NATIONAL WEATHER SERVICE CHARLESTON SC
900 AM EST SAT FEB 06 2016

NOTE: "FAIR" INDICATES FEW OR NO CLOUDS BELOW 12,000 FEET WITH NO
SIGNIFICANT WEATHER AND/OR OBSTRUCTIONS TO VISIBILITY.

NOT ALL STATIONS ARE QUALITY CONTROLLED BY THE NATIONAL
WEATHER SERVICE. USE DATA WITH CAUTION...ESPECIALLY
DEWPOINT OBSERVATIONS.

NOTICE: OBSERVATIONS FOR THE SAVANNAH-HILTON HEAD INTERNATIONAL AIRPORT
/KSAV/ HAVE BEEN TEMPORARILY REMOVED DUE TO AN ERRONEOUS TEMPERATURE
SENSOR. THE OBSERVATION WILL BE REINTRODUCED ONCE REPAIRS ARE COMPLETE.

SCZ027-030-031-034>040-042>050-061500-
...SOUTHEAST SOUTH CAROLINA...

CITY           SKY/WX    TMP DP  RH WIND       PRES   REMARKS
N CHARLESTON   PTSUNNY   42  29  59 NE8       30.38S
WATERFRONT PRK   N/A     44  33  65 NE12      30.23R
MOUNT PLEASANT PTSUNNY   43  30  61 N6        30.39S
JOHNS ISLAND   PTSUNNY   45  28  53 N10       30.37F
PINOPOLIS        N/A     43  32  65 NE9       30.32R
MONCKS CORNER  CLOUDY    39  25  56 NE9       30.39F WCI  33
SUMMERVILLE    PTSUNNY   41  34  75 NE3       30.40S
BEAUFORT MCAS  CLOUDY    44  28  53 NE12      30.36F
BEAUFORT ARPT  CLOUDY    45  30  57 NE15      30.36S
HILTON HEAD IS NOT AVBL
WALTERBORO     CLOUDY    43  32  65 NE8       30.39S
ALLENDALE      FAIR      39  30  70 CALM      30.36F

...SOUTHERN MIDLANDS AND PEE DEE...

CITY           SKY/WX    TMP DP  RH WIND       PRES   REMARKS
GEORGETOWN     NOT AVBL
KINGSTREE      NOT AVBL
ORANGEBURG     MOSUNNY   37  29  72 NE7       30.38F WCI  32
BARNWELL       FAIR      37  32  81 NE6       30.38S WCI  33
AIKEN          NOT AVBL
MANNING        FAIR      36  18  48 NE3       30.40S
COLUMBIA       CLOUDY    37  26  64 NE6       30.39F WCI  32
SUMTER         MOSUNNY   36  29  73 NE8       30.38F WCI  30
FLORENCE       PTSUNNY   36  31  82 NE5       30.42S WCI  32
MYRTLE BEACH   MOSUNNY   41  28  60 N13       30.42F
N MYRTLE BEACH CLOUDY    41  29  62 NE12      30.40S

$$

GAZ063-065-086>088-099>101-113>116-118-119-134>141-150-061500-
...SOUTHEAST GEORGIA...

CITY           SKY/WX    TMP DP  RH WIND       PRES   REMARKS
SAVANNAH ARPT  CLOUDY    44  26  49 NE8G17    30.34F
HUNTER AAF     CLOUDY    45  28  52 NE10      30.31F
FORT STEWART   CLOUDY    44  27  50 NE9       30.32S
STATESBORO     PTSUNNY   44  26  48 NE5       30.36R
SYLVANIA       PTSUNNY   42  33  71 E6        30.36S
CLAXTON        PTSUNNY   43  32  66 N5        30.36R

...CSRA...CENTRAL AND FAR SOUTHEAST GEORGIA...

CITY           SKY/WX    TMP DP  RH WIND       PRES   REMARKS
THOMSON        MOSUNNY   31  31 100 CALM      30.43R
AUGUSTA-BUSH   CLOUDY    36  29  75 N5        30.37F WCI  32
AUGUSTA-DANIEL CLOUDY    39  25  57 N6        30.37S WCI  35
SWAINSBORO     CLOUDY    37  30  75 E5        30.36S WCI  34
VIDALIA        MOSUNNY   41  32  70 E6        30.34S
EASTMAN        PTSUNNY   37  34  89 CALM      30.38R
HAZLEHURST     FAIR      42  32  66 NE7       30.32F
ALMA           CLOUDY    44  28  53 NE8       30.32S
WAYCROSS       CLOUDY    47  33  57 E6        30.32R
JESUP          CLOUDY    46  32  57 E10       30.33S
BAXLEY         PTSUNNY   45  32  61 NE10      30.32F
BRUNSWICK      MOSUNNY   50  36  57 NE12G23   30.32S
SAINT SIMONS   MOSUNNY   50  38  63 NE21G29   30.30F

$$

SCZ027-028-034-036>038-045-046-048>050-GAZ119-141-061500-
...LAKE AND SUPPLEMENTAL COASTAL OBSERVATIONS...

STATION/POSITION TIME  TEMP    WIND        PRES    WAVE   SWELL
                       AIR SEA DIR/SP/G            HT/PER HT/PER/DIR
                 (UTC) (F)     (DEG/KT/KT) (MB)    (FT/S) (FT/S/D)
WINYAH BAY       1245   40      30/  9     1028.0
LAKE MURRAY      1300   33     360/  1/  3 1029.5S
ACE BASIN NERRS  NOT AVBL
FORT PULASKI     1300   46 55   20/ 16/ 19 1027.9R
SAPELO ISLAND    1300   47      30/ 12     1026.0F

$$

ANZ835-935-AMZ111-154-330-350-352-354-370-450-454-472-061500-
...C-MAN AND BUOY OBSERVATIONS...

STATION/POSITION TIME  TEMP    WIND        PRES    WAVE   SWELL
                       AIR SEA DIR/SP/G            HT/PER HT/PER/DIR
                 (UTC) (F)     (DEG/KT/KT) (MB)    (FT/S) (FT/S/D)
BUOY 41004       1350   52 66   20/ 23/ 27 1026.8R   6/ 6   3/ 9
BUOY 41008       1350   51 56   40/ 21/ 27 1025.9R   7/ 6   2/ 60/ 9
FOLLY BEACH CMAN 1300   45      30/ 17/ 20 1028.7R
CAPERS NEARSHORE 1308   47      40/ 21/ 27 1027.6R
FRIPP NEARSHORE  1300   48      30/ 19/ 21 1026.9R


STATION/POSITION TIME  TEMP    WIND        PRES    WAVE   SWELL
                       AIR SEA DIR/SP/G            HT/PER HT/PER/DIR
                 (UTC) (F)     (DEG/KT/KT) (MB)    (FT/S) (FT/S/D)
5E ST. MARYS GA  1321      57                N/A     7/ 6   2/ 50/11
FRYING PAN BUOY  1300   50 69  360/ 21/ 25 1028.3R
BUOY 41025       1350   47 73  360/ 17/ 23 1029.6R   6/11   5/ 70/11
CAPE LOOKOUT NC  NOT AVBL
BUOY 41002       1350   61 69   50/ 12/ 16   N/A     9/12   8/ 10/12
BUOY 41010       1320   68 74              1022.9R
ST AUGUSTINE FL  1400   55 59  360/ 28/ 30 1024.5F


$$



USA.gov is the U.S. government's official web portal to all federal, state and local government web resources and services.